Theta_e
294 294 294 294 294 294 293 293 293 293 292 292 292 292 293 293 293 293 293 293 294 294 294 294 294 295 295 295 295 296 296 296 297 297 297 298 298 298 298 296 295 295 296 297 298 299 300 301 302 303 305 306 307 307 306 307 308 310 311 312 313 313 312 312 313 313 314 314 314 315 316 316 317 317 317 317 317 317 317 316 316 315 315 315 316 316
293 293 293 293 293 293 293 293 293 292 292 293 293 293 293 293 293 294 294 294 294 294 294 294 294 294 294 295 295 295 295 295 296 296 297 297 298 298 298 297 297 298 299 301 302 302 303 304 304 305 305 304 304 304 304 306 307 309 311 312 312 312 312 312 313 313 314 314 314 315 315 316 316 316 316 316 317 317 318 318 317 317 316 315 315 315
293 293 293 293 293 292 292 292 292 292 293 293 293 294 294 294 294 294 293 293 293 293 293 293 293 294 294 294 294 294 295 295 295 296 296 296 297 297 298 298 299 300 301 302 303 303 303 303 303 302 301 300 300 300 302 304 306 308 309 310 310 310 311 311 312 313 314 314 314 315 315 316 316 316 316 315 316 316 317 317 318 318 317 316 316 315
293 293 292 292 292 292 292 292 292 293 293 294 294 294 294 293 293 293 293 293 292 292 292 292 293 293 293 293 293 294 294 294 295 295 296 296 296 297 298 298 299 300 301 302 302 301 301 300 299 299 299 299 299 300 301 302 304 305 306 307 307 307 308 309 310 312 313 313 313 314 314 315 315 315 315 315 315 316 316 317 317 317 317 317 316 316
292 292 292 292 292 292 292 293 293 293 294 294 293 293 293 292 292 292 292 292 291 292 292 292 292 292 293 293 293 293 294 294 294 295 295 296 296 297 298 299 299 300 300 300 299 298 298 298 298 299 300 300 300 301 301 301 302 303 304 304 304 305 305 306 308 309 310 311 312 312 314 314 315 315 315 315 315 315 316 316 316 316 317 317 317 317
292 292 292 292 292 292 293 293 293 294 293 293 292 292 291 291 291 291 291 291 291 291 291 292 292 292 292 293 293 293 294 294 295 295 295 296 297 297 298 298 299 299 298 298 298 298 299 300 301 301 301 301 301 300 300 300 301 301 302 302 303 303 304 305 307 307 308 309 310 311 312 313 314 314 315 315 315 315 315 315 316 316 316 316 317 317
292 292 292 292 292 292 293 293 293 293 292 292 291 291 290 290 290 290 290 290 291 291 291 292 292 292 292 293 293 293 294 294 294 295 295 296 296 297 297 298 298 298 298 298 299 299 300 301 301 301 300 300 299 299 299 300 300 301 301 302 302 303 304 305 306 307 307 308 308 310 311 312 313 313 313 313 314 314 314 314 315 315 315 316 316 317
292 292 292 292 293 293 293 292 292 291 291 291 290 290 290 290 290 290 290 290 291 291 291 292 292 292 292 292 293 293 293 294 294 295 295 296 296 297 297 297 297 298 298 298 299 299 300 299 299 299 299 299 300 301 302 302 303 303 303 303 303 303 304 305 306 307 308 308 308 309 310 311 311 312 312 312 313 313 313 313 314 314 315 315 316 316
292 292 292 293 292 292 292 291 291 291 290 290 290 290 290 290 290 290 290 291 291 291 291 292 292 292 292 292 293 293 293 294 294 295 295 296 296 296 297 297 297 297 298 298 298 298 298 298 298 299 300 301 303 304 305 306 306 307 306 306 305 305 305 306 307 308 309 309 309 309 310 311 311 312 312 312 312 312 312 313 313 314 314 315 315 316
292 292 292 292 291 291 291 290 290 290 290 290 290 290 290 290 290 290 291 291 291 291 291 291 292 292 292 292 293 293 294 294 295 295 295 296 296 296 297 297 297 298 298 298 298 298 298 298 299 300 301 303 304 305 306 306 307 307 307 307 307 307 307 307 308 309 310 310 310 310 311 311 312 312 312 312 312 312 312 313 313 314 314 314 315 315
291 291 291 290 290 290 290 290 290 290 290 290 290 290 290 290 290 291 291 291 291 291 291 291 292 292 292 293 293 293 293 294 294 295 295 296 296 297 297 297 298 298 298 299 299 299 299 299 300 300 301 302 302 303 303 303 302 303 303 304 305 307 308 308 309 310 310 311 311 311 311 312 312 312 311 311 311 311 312 312 313 313 314 314 315 315
290 290 290 290 290 289 289 289 289 289 289 290 290 290 290 290 291 291 291 291 291 291 291 291 292 292 292 293 293 293 293 294 294 295 295 296 296 297 298 298 299 299 299 299 299 300 300 300 300 301 301 301 300 300 299 298 298 299 300 301 303 304 306 308 309 310 310 311 311 311 312 312 311 310 310 309 309 310 311 311 312 313 313 314 314 315
289 289 289 289 289 289 289 289 289 289 289 290 290 290 290 290 290 290 290 290 290 290 291 291 292 292 292 293 293 293 294 294 295 295 296 296 297 298 298 299 299 299 299 300 300 300 300 300 300 301 300 299 298 297 297 298 298 299 300 301 302 303 305 306 308 309 310 311 311 312 312 311 310 309 308 308 308 308 309 310 311 312 312 313 313 314
289 289 289 289 289 289 289 289 289 289 290 290 290 290 290 290 290 290 289 289 290 290 291 291 292 292 292 293 293 294 294 295 296 296 296 297 297 297 297 297 297 297 297 298 298 299 299 299 299 299 299 298 298 298 298 299 299 300 300 301 302 302 303 305 306 307 309 309 310 310 310 310 309 308 307 307 307 307 308 309 310 311 312 312 313 314
289 289 289 289 289 288 288 289 289 290 290 290 290 289 289 289 289 289 289 289 290 290 291 291 292 292 292 293 294 294 294 294 295 295 295 295 295 295 295 295 296 296 296 297 297 298 298 298 298 298 298 298 298 298 299 299 300 300 301 301 302 302 303 303 304 306 307 307 308 308 308 307 307 307 306 306 306 307 307 308 309 310 311 312 313 314
290 289 289 288 288 288 289 289 290 290 290 289 289 289 288 288 288 289 289 289 290 290 291 291 292 292 293 293 293 293 293 293 293 293 294 294 294 294 295 295 295 296 296 296 297 297 297 297 297 298 298 298 298 299 299 300 300 301 301 301 302 302 302 303 303 304 305 305 305 305 305 305 305 305 306 306 306 307 307 308 309 309 310 311 312 313
290 289 288 288 288 288 289 290 290 290 289 288 288 288 288 288 288 289 289 289 290 290 291 291 292 293 293 292 292 292 292 292 292 292 293 293 293 293 294 294 295 295 295 296 296 296 297 297 297 298 298 299 299 300 300 300 301 301 301 302 302 302 303 303 304 304 304 304 304 303 303 303 304 304 305 306 306 307 308 308 309 309 310 311 312 313
289 289 288 288 288 288 289 290 289 289 288 288 288 288 288 288 288 289 289 289 289 290 290 291 292 293 292 291 291 291 291 292 292 292 292 293 293 293 293 294 294 295 295 295 296 296 297 297 298 298 299 299 300 300 300 300 301 301 302 303 303 304 304 305 305 304 303 303 302 302 302 302 303 304 305 305 306 307 308 308 308 309 310 311 311 312
288 288 288 288 288 289 290 289 289 288 288 288 288 288 288 288 288 289 289 289 289 290 291 292 292 292 291 291 291 291 291 292 292 292 292 292 292 293 293 293 294 294 295 295 296 296 297 298 298 299 299 299 300 300 301 301 302 302 303 304 304 303 303 302 302 302 302 302 302 302 302 302 303 304 305 305 306 307 307 308 308 309 310 310 311 312
288 287 287 288 289 289 289 289 288 288 288 288 288 288 288 288 288 289 289 289 290 291 292 292 291 291 291 291 291 291 291 291 291 292 292 292 292 292 293 293 294 294 295 295 296 297 297 298 299 299 300 301 301 301 301 302 302 303 302 301 300 300 300 300 300 301 301 301 301 301 302 302 303 304 304 305 306 307 307 308 308 309 309 310 311 312
287 287 288 288 289 289 289 288 288 288 288 288 288 288 288 289 289 289 289 290 291 292 292 291 291 290 290 291 291 291 291 291 291 291 292 292 292 293 293 293 294 294 295 296 296 297 298 298 299 299 299 298 298 298 298 299 299 299 299 299 299 299 299 300 300 300 300 300 301 301 301 302 302 303 304 305 306 306 307 308 308 309 309 310 311 312
287 288 288 288 289 289 288 288 288 288 288 288 288 288 288 288 289 289 290 290 291 291 291 290 290 290 290 291 291 291 291 291 291 291 292 293 293 293 293 293 294 295 296 297 297 297 296 296 296 295 296 296 296 296 297 297 297 297 298 298 298 298 299 299 299 299 300 300 300 300 301 301 302 303 303 304 305 306 307 308 308 309 309 310 311 312
288 288 288 289 289 288 288 288 288 287 287 287 287 287 287 288 288 289 289 290 290 290 290 290 290 290 290 291 291 291 291 291 291 291 292 292 292 292 292 293 294 296 296 295 294 293 293 294 294 294 295 295 295 296 296 297 297 298 298 298 298 298 298 298 298 299 299 299 300 300 300 301 302 302 303 304 305 306 307 307 308 308 309 310 311 312
288 288 289 289 288 288 288 287 287 286 286 286 286 287 287 287 287 288 288 289 289 289 289 289 290 290 291 291 291 290 290 290 290 291 291 291 292 292 293 294 294 294 293 293 293 293 293 293 293 294 294 294 295 296 297 297 298 298 298 298 297 297 297 297 297 298 298 299 299 300 300 301 302 303 303 304 305 306 306 307 308 308 309 310 311 312
288 289 289 288 288 287 287 286 286 286 285 286 286 286 286 287 287 288 288 289 289 289 289 290 290 291 291 290 290 289 289 289 290 290 291 291 292 293 293 293 293 292 292 292 292 292 292 293 293 294 294 294 295 295 296 296 296 296 296 296 296 296 296 297 297 298 298 299 299 300 300 301 302 303 304 304 305 306 306 307 307 308 309 310 310 312
289 288 288 287 287 286 286 285 285 285 285 285 286 286 286 287 287 288 288 289 289 289 290 291 291 291 290 289 289 289 289 289 290 290 291 292 292 292 292 291 291 291 291 291 291 292 292 292 293 293 293 293 293 293 294 294 295 295 295 295 295 296 296 297 297 298 298 299 299 300 301 302 302 303 304 305 305 306 306 307 307 308 309 309 310 311
287 287 286 286 285 285 284 284 284 284 285 285 285 286 286 287 287 288 288 289 289 290 290 291 291 290 289 289 288 289 289 289 289 290 290 290 290 290 290 290 290 291 291 291 291 291 291 291 291 291 291 292 292 293 294 294 295 295 295 295 296 296 297 297 297 298 298 299 299 300 301 302 303 303 304 305 306 306 306 307 307 308 308 309 310 311
285 285 285 284 284 284 284 284 284 284 285 285 285 286 286 287 288 288 288 289 289 290 291 290 290 289 289 288 288 288 289 289 289 289 289 289 289 290 290 290 290 290 290 290 290 290 290 290 290 291 291 292 293 294 295 295 295 295 295 295 295 296 296 296 297 297 298 299 300 301 302 302 303 304 304 305 306 306 307 307 307 308 308 309 310 311
284 284 284 284 283 284 284 284 284 284 285 285 285 285 286 287 287 288 288 288 289 290 290 289 289 288 288 288 288 288 288 288 288 288 288 289 289 289 289 289 289 289 289 289 289 289 289 289 290 291 292 293 294 294 295 295 294 294 294 294 294 295 295 296 296 297 298 300 300 301 302 303 303 304 305 306 306 307 307 307 308 308 308 309 310 311
283 283 283 283 283 284 284 284 284 284 284 285 285 285 286 286 287 287 287 288 289 290 289 288 288 288 288 288 288 288 288 288 288 288 288 289 289 289 289 289 289 289 288 288 289 289 289 289 290 291 292 292 293 293 293 293 293 293 293 293 294 294 295 296 297 298 299 301 301 302 303 303 304 304 305 306 306 307 307 308 308 308 308 309 310 311
283 283 283 283 283 283 283 283 284 284 284 284 285 285 286 286 286 287 288 289 289 289 288 287 287 287 287 288 288 288 288 288 288 288 288 288 288 288 288 288 288 288 288 288 288 289 289 289 289 290 290 291 291 291 291 291 292 292 292 293 293 294 295 296 298 299 300 302 302 303 303 304 304 305 305 306 306 307 307 307 307 308 308 309 310 311
282 283 283 283 283 283 283 283 284 284 284 285 285 286 286 286 287 287 288 288 288 287 287 286 286 287 287 287 288 288 288 288 287 287 288 288 288 288 288 288 288 288 288 288 288 288 288 289 289 289 289 289 289 289 290 290 291 292 292 292 293 294 295 297 299 300 301 302 302 303 303 304 305 305 305 306 306 306 307 307 307 308 308 309 310 310
282 282 282 282 283 283 283 283 284 284 284 285 285 285 286 286 286 287 287 287 286 286 286 286 286 287 287 287 288 288 287 287 287 287 287 287 287 287 287 288 288 288 287 287 287 287 288 288 288 288 288 288 289 289 289 290 291 291 292 292 292 294 296 298 300 300 301 301 302 303 303 304 305 306 306 306 307 307 307 307 307 308 308 309 309 310
282 282 282 282 282 283 283 283 284 284 284 285 285 285 285 286 286 286 286 286 286 285 286 286 286 287 287 287 288 288 287 287 287 287 287 287 287 287 287 287 287 287 287 287 287 287 287 288 288 288 288 288 288 288 289 290 291 291 291 292 292 294 296 298 299 300 299 300 302 303 303 304 305 306 307 307 308 308 308 308 308 309 309 309 309 309
282 282 282 282 283 283 283 283 283 284 284 284 284 285 285 285 285 285 285 285 285 285 285 285 286 286 287 287 287 287 287 286 286 286 286 286 287 287 287 287 287 287 287 287 287 287 287 287 287 287 287 288 288 288 289 290 290 291 291 292 292 293 295 297 298 298 298 300 302 303 304 305 306 307 308 308 308 308 308 308 308 308 308 308 309 309
282 282 282 282 283 283 283 283 283 283 284 284 284 284 284 284 284 284 285 285 285 285 285 285 285 286 287 287 287 287 286 286 286 286 286 286 286 286 286 286 286 286 286 286 287 287 287 287 287 287 287 287 287 288 289 290 290 291 291 292 292 293 294 296 297 297 298 300 302 303 304 305 306 307 307 307 307 307 307 307 307 307 307 307 308 308
282 282 282 282 282 283 283 283 283 283 283 283 284 284 284 284 284 284 284 284 284 285 285 285 286 286 287 287 286 286 286 286 285 285 286 286 286 286 286 286 286 286 286 286 286 287 287 287 287 286 287 287 287 288 289 290 290 291 291 292 292 293 294 295 296 297 297 299 302 303 304 304 305 305 305 305 305 306 306 305 305 305 305 305 306 306
282 282 282 282 282 282 282 283 283 283 283 283 283 283 283 283 284 284 284 284 284 284 285 285 286 286 286 286 286 286 285 285 285 285 285 286 286 286 286 286 286 286 286 286 286 286 286 286 286 286 286 287 287 288 288 289 290 290 291 291 292 293 294 295 296 296 297 299 301 302 303 303 304 304 304 304 304 304 304 304 303 303 303 303 303 304
281 282 282 282 282 282 282 282 282 282 283 283 283 283 283 283 283 284 284 284 284 285 285 285 286 286 286 286 285 285 285 285 285 285 285 285 285 286 286 286 286 286 286 285 285 285 285 285 285 286 286 286 287 287 288 289 289 290 290 291 292 292 294 295 295 295 296 298 300 302 302 302 302 303 302 302 302 303 302 302 301 301 301 301 301 301
281 281 281 282 282 282 282 282 282 282 282 282 283 283 283 283 283 284 284 284 284 285 285 286 286 286 286 285 285 285 285 285 285 285 285 285 285 286 286 285 285 285 285 285 285 285 285 285 285 285 285 286 286 287 287 288 289 290 290 291 291 292 294 294 294 294 295 297 299 300 301 301 301 301 301 301 301 301 301 300 300 300 300 300 300 299
281 281 281 281 281 281 282 282 282 282 282 282 282 283 283 283 283 284 284 284 284 285 285 286 286 286 285 285 285 285 285 285 285 285 285 286 286 285 285 285 285 285 285 284 284 284 284 284 284 285 285 285 286 286 287 288 289 290 290 290 291 292 294 294 294 294 295 296 298 299 300 299 299 299 299 299 299 299 299 298 298 298 299 299 299 299
281 281 281 281 281 281 281 282 282 282 282 282 283 283 283 283 283 284 284 284 284 285 285 286 286 285 285 285 285 285 285 285 285 285 286 286 285 285 285 284 284 284 284 284 284 284 284 284 284 284 285 285 286 286 287 288 289 290 290 290 291 292 294 294 294 294 295 296 297 298 298 298 298 298 297 297 297 297 297 297 297 297 297 297 297 297
281 281 281 281 281 281 281 281 282 282 282 282 282 283 283 283 283 284 284 284 285 285 285 285 285 285 285 285 285 285 285 285 285 286 286 285 285 285 284 284 284 284 284 283 283 283 283 283 284 284 285 285 286 286 287 289 290 290 290 290 291 292 293 293 294 294 295 295 296 297 297 297 297 297 297 297 297 297 297 297 297 297 297 297 297 297
280 281 281 281 281 281 281 281 282 282 282 282 282 283 283 283 283 283 284 284 285 285 285 285 285 285 284 285 285 285 285 285 285 286 285 285 285 284 284 284 284 284 284 283 283 283 283 283 283 284 285 285 286 287 288 289 289 290 290 290 291 292 293 293 293 294 294 295 296 296 297 297 297 297 297 297 297 298 298 298 298 298 298 298 298 298
280 280 281 281 281 281 281 281 282 282 282 282 282 283 283 283 283 283 284 284 285 285 285 284 284 284 284 285 285 285 285 285 285 285 285 284 284 284 284 284 284 284 283 283 283 283 283 283 283 284 285 285 286 287 288 289 290 290 290 290 291 292 293 293 293 294 294 295 295 296 296 297 297 298 298 298 298 298 298 298 299 299 299 299 299 299
280 280 281 281 281 281 281 281 281 282 282 282 282 283 283 283 283 283 284 284 285 285 284 284 284 284 284 285 285 285 285 285 285 285 284 284 284 284 284 284 284 283 283 283 283 283 283 283 284 284 285 286 287 288 289 289 290 290 290 291 291 292 292 293 294 294 295 295 295 296 296 297 298 298 297 297 296 296 297 297 298 298 299 299 299 300
280 280 280 281 281 281 281 281 281 282 282 282 282 282 283 283 283 283 284 284 284 284 284 284 284 284 284 284 285 285 285 285 285 284 284 284 284 284 284 284 284 284 283 283 283 283 283 283 284 284 285 286 287 288 289 289 289 290 290 291 291 292 292 293 294 294 295 295 295 296 296 297 297 297 296 296 295 295 296 296 296 297 297 297 298 298
280 280 280 280 281 281 281 281 281 282 282 282 282 282 283 283 283 284 284 284 284 283 283 284 284 284 284 284 285 285 285 285 284 284 284 284 284 284 284 284 284 284 283 283 283 283 283 283 284 285 286 286 287 288 288 289 289 289 290 290 291 292 292 293 294 294 295 295 295 296 296 297 297 296 296 295 295 295 295 295 295 295 296 296 296 296
280 280 280 280 281 281 281 281 281 282 282 282 282 282 282 283 283 284 284 284 283 283 283 284 284 284 284 284 285 285 285 284 284 284 283 283 283 284 284 285 285 284 284 284 283 283 283 283 284 285 286 286 287 287 287 288 288 289 289 290 291 291 292 293 293 294 295 295 295 295 296 296 296 296 295 295 294 294 294 294 294 294 295 295 295 295
280 280 280 280 281 281 281 281 281 281 282 282 282 282 283 283 283 284 283 283 283 283 283 284 284 284 284 285 285 285 284 284 284 283 283 283 283 284 284 285 285 285 285 284 284 283 283 283 284 284 285 286 286 286 287 287 288 288 289 290 291 291 292 292 293 294 294 295 295 295 295 295 295 295 295 294 294 294 293 293 293 294 294 294 295 295
280 280 280 280 281 281 281 281 281 281 282 282 282 282 283 283 283 283 283 283 283 283 283 284 284 284 284 284 284 284 284 283 283 283 282 283 283 283 284 284 285 285 285 285 284 284 284 284 284 284 285 285 285 286 286 286 287 288 289 290 290 291 292 292 293 294 294 294 294 295 295 294 294 294 294 294 293 293 293 293 293 293 293 294 294 294
Wind_Speed
34 35 35 35 36 37 38 37 37 37 38 37 36 35 34 34 34 34 35 35 36 36 37 37 37 38 38 38 38 38 38 38 38 38 38 39 39 40 42 43 43 41 40 38 38 38 39 39 39 39 39 39 40 40 40 39 37 36 35 35 35 35 35 36 36 37 37 37 37 37 37 37 36 35 34 34 34 35 36 38 39 40 42 42 41 40
35 35 35 35 36 37 37 36 35 35 35 35 34 33 33 33 34 35 35 35 35 36 36 37 37 38 38 39 39 39 39 39 39 39 39 39 39 39 41 41 40 38 36 36 36 36 37 38 39 39 40 41 41 40 39 37 36 35 35 34 34 35 36 36 37 37 37 37 37 37 37 36 34 33 33 34 34 34 35 36 37 39 41 42 42 41
35 36 35 35 34 35 35 35 34 33 33 33 32 32 32 33 35 35 36 36 36 37 37 37 38 38 39 39 39 39 39 39 39 38 38 38 39 39 39 39 39 38 37 38 38 38 40 41 41 42 42 41 41 39 38 37 37 37 36 36 36 36 37 37 37 36 36 36 36 36 36 35 34 33 34 35 35 34 34 34 35 37 38 40 41 41
34 34 35 34 33 33 34 33 33 32 32 31 31 31 32 34 35 36 37 37 38 38 38 38 38 38 39 39 39 38 38 38 38 38 38 38 38 39 39 38 38 38 38 39 40 41 43 43 42 42 41 40 39 38 37 37 37 37 37 37 37 37 37 37 36 35 34 34 35 34 34 33 32 32 33 35 35 35 35 34 35 35 37 38 39 40
32 33 34 34 34 34 33 32 31 31 30 30 30 31 32 34 35 37 37 38 38 38 38 38 38 37 38 38 38 38 38 38 38 38 38 38 38 38 38 37 37 38 39 41 42 43 42 41 40 39 38 37 37 36 36 36 36 36 36 36 36 35 35 34 33 32 32 32 33 32 31 30 30 31 32 33 34 34 35 35 35 36 37 37 38 39
32 33 34 34 34 34 34 33 31 30 29 29 31 32 33 35 36 36 37 37 38 38 38 37 37 37 37 37 37 37 37 37 37 37 36 36 36 36 35 35 36 38 39 41 41 40 39 38 37 37 37 37 37 37 36 36 36 35 35 35 34 34 33 32 31 31 30 31 31 31 30 28 28 28 30 31 32 33 34 35 36 37 38 38 39 39
34 34 35 36 37 37 35 32 29 27 28 31 32 34 34 35 35 36 36 37 37 37 37 37 37 36 35 35 35 35 35 35 34 34 34 33 33 33 33 33 34 36 37 38 38 37 37 37 37 38 38 38 37 36 35 34 33 33 33 33 33 32 32 31 31 30 30 30 30 30 29 28 27 28 29 30 31 32 33 35 36 37 38 39 40 40
35 36 35 36 35 33 30 27 27 28 29 31 33 35 35 35 35 36 36 36 36 36 36 36 35 34 33 33 33 33 33 33 32 32 31 31 31 31 32 33 34 35 35 36 36 36 37 37 37 36 36 35 34 32 30 28 28 28 29 30 31 31 30 30 30 30 30 30 30 30 29 28 27 28 29 30 31 33 34 35 36 37 39 40 41 42
34 34 33 31 29 27 27 28 29 30 30 31 33 34 35 36 36 36 36 36 35 35 34 34 34 34 33 33 32 32 32 32 31 31 31 31 32 33 34 34 35 35 35 35 35 35 35 35 34 32 31 29 28 26 25 25 25 26 27 28 28 29 29 30 30 30 29 29 29 28 28 27 27 27 28 30 31 33 34 35 36 37 39 40 42 43
33 32 31 30 29 29 30 32 32 32 31 32 32 33 33 34 35 35 36 35 35 34 33 33 33 33 33 33 32 32 32 32 32 32 33 33 34 35 35 35 36 35 35 35 34 34 34 33 31 30 29 29 28 28 29 29 29 28 27 27 26 27 27 29 29 29 28 27 27 26 26 25 26 26 27 28 30 32 33 35 36 37 38 40 41 43
33 32 32 32 32 32 31 32 33 33 33 33 33 33 33 32 32 32 34 35 35 35 33 33 32 32 33 33 33 33 33 33 34 34 34 34 34 35 35 35 35 35 34 33 33 33 33 32 31 31 31 31 32 33 34 34 34 33 32 30 28 26 26 27 27 26 26 25 25 24 24 24 25 25 26 27 28 30 31 33 34 35 37 39 40 42
33 32 31 32 32 32 32 32 33 33 32 32 32 32 32 31 30 31 33 34 35 35 35 34 33 33 33 34 34 35 35 35 35 35 35 34 34 33 32 31 31 30 29 28 29 30 32 33 33 33 33 33 34 36 38 38 38 37 35 33 30 27 26 25 25 24 23 23 23 23 24 24 25 26 26 27 28 29 30 31 32 34 35 37 39 41
31 31 31 31 31 31 32 33 33 33 32 30 30 31 31 32 32 32 33 35 35 35 35 35 35 35 36 36 35 35 36 36 36 35 35 33 32 30 29 29 28 27 27 27 29 31 33 34 34 34 35 38 40 41 41 39 36 34 31 30 29 28 26 25 24 22 22 22 22 23 23 24 26 27 27 28 29 30 30 31 32 33 34 36 38 40
31 30 30 31 31 32 32 33 33 32 31 29 29 30 31 32 33 33 34 35 35 35 34 35 36 37 37 37 35 34 34 33 34 34 32 31 31 31 32 34 35 34 33 32 32 33 34 34 35 36 38 41 42 41 40 37 33 30 27 26 26 26 26 25 24 23 23 22 22 23 23 24 25 27 29 30 31 32 32 32 32 33 34 36 38 39
30 29 30 31 32 32 33 33 32 31 30 29 29 30 32 33 34 34 34 34 35 35 35 36 38 39 39 38 34 31 29 30 31 31 31 32 32 32 32 34 34 33 33 32 32 33 33 33 34 35 38 40 40 39 37 34 31 28 25 23 22 23 23 24 24 24 24 23 23 23 23 24 26 28 30 32 33 33 33 33 33 33 34 35 37 39
29 29 30 31 33 34 33 32 31 30 29 29 30 32 33 34 34 33 33 34 34 35 36 38 38 37 34 29 26 25 26 28 30 30 31 32 32 31 30 30 30 31 31 31 31 32 33 35 35 36 37 38 38 36 34 32 31 28 26 23 21 21 20 21 21 21 22 22 22 22 23 24 26 29 31 32 33 34 34 34 34 34 34 35 37 38
27 28 30 32 34 35 34 32 30 28 29 30 32 33 33 33 33 33 33 34 35 36 37 37 35 30 26 25 26 26 27 28 29 31 31 32 32 31 29 29 30 31 31 32 32 34 35 35 35 35 35 35 34 33 32 32 31 29 25 22 19 18 17 17 17 18 19 20 21 22 24 25 27 29 31 33 34 34 35 35 35 35 35 36 37 38
29 30 32 33 35 35 33 31 29 29 30 31 32 33 33 33 33 33 34 35 37 38 39 36 31 25 24 28 31 31 29 29 29 30 31 32 32 32 31 30 30 31 32 33 33 34 34 33 33 33 33 33 32 32 32 32 31 28 23 19 17 17 18 18 18 18 20 21 22 24 25 26 28 29 31 33 33 34 35 35 36 36 36 37 37 38
34 34 34 34 35 34 32 30 29 30 31 32 33 34 35 35 35 35 36 38 39 39 36 31 25 23 26 30 34 34 31 29 28 30 31 33 34 34 32 30 30 31 32 32 32 32 31 31 30 30 31 31 31 30 30 29 28 26 22 21 22 21 20 19 20 21 22 24 25 26 27 28 29 30 31 32 33 34 35 35 36 37 37 38 38 39
36 35 34 34 34 33 31 30 30 31 32 34 35 36 37 37 37 37 37 39 39 36 31 26 25 27 30 33 35 35 32 30 30 31 33 34 35 34 32 30 30 31 31 32 31 30 29 28 28 29 29 28 28 27 27 26 24 24 25 25 25 24 24 24 25 25 26 27 28 28 29 29 30 30 31 32 33 34 35 35 36 37 38 38 39 39
35 35 34 34 33 31 30 31 32 32 33 35 37 38 38 38 37 38 39 38 36 33 29 28 29 31 33 35 36 35 33 31 31 32 33 34 34 32 31 29 30 31 33 32 31 28 27 27 28 29 31 33 34 34 34 35 36 36 34 32 31 30 29 28 28 29 30 30 31 31 31 31 31 31 32 32 33 34 35 35 36 37 38 38 39 39
34 35 35 33 32 31 31 32 33 34 35 37 38 39 39 39 38 38 39 37 35 33 32 32 33 35 36 37 36 34 31 30 31 32 33 32 32 32 31 30 31 32 31 28 25 25 27 30 33 36 37 38 38 38 38 39 38 37 36 34 33 31 30 29 30 31 32 32 33 33 33 33 33 33 33 33 34 34 35 35 36 37 38 38 39 39
35 36 35 33 31 30 30 31 33 35 37 39 39 39 40 40 40 41 41 40 38 36 35 36 37 38 37 36 34 32 29 28 28 29 29 29 31 32 32 32 31 29 26 25 26 28 31 33 35 36 37 36 34 32 32 32 32 32 32 32 32 31 31 31 32 33 34 34 34 34 34 34 34 34 33 34 34 34 35 35 35 36 37 38 38 38
36 35 33 30 28 28 30 33 35 37 38 39 39 39 40 41 43 43 42 40 37 36 36 38 38 37 34 31 30 29 28 27 25 25 27 29 31 32 31 27 25 24 25 26 28 30 32 34 36 37 36 34 31 29 29 29 29 30 32 33 35 35 35 35 35 35 36 36 36 36 35 34 34 34 34 34 34 34 34 35 35 35 36 37 38 38
33 30 29 28 29 31 34 37 39 40 40 39 39 40 41 41 40 38 36 35 34 35 36 38 36 32 30 28 28 29 28 25 23 24 26 27 28 28 27 25 24 25 27 29 29 30 30 31 31 32 31 31 31 31 31 31 32 33 35 36 36 36 35 35 35 36 36 36 36 35 35 34 34 33 33 33 34 34 34 34 34 35 35 36 37 38
28 28 29 31 33 36 40 42 43 42 40 38 38 38 37 37 37 36 35 34 34 34 34 32 29 27 27 28 29 29 28 25 23 23 24 26 27 28 28 27 26 26 28 29 28 27 27 28 30 31 32 33 34 35 34 33 33 34 33 32 32 31 31 32 32 32 33 33 34 34 34 33 33 33 33 33 33 33 33 34 34 34 34 35 36 37
28 30 32 34 37 40 42 43 42 40 38 35 33 33 33 34 35 34 33 33 33 33 30 27 25 25 28 30 30 30 28 25 24 24 25 26 28 29 28 26 24 24 26 27 28 28 29 30 31 32 33 33 32 31 29 27 27 27 27 27 27 28 28 29 29 30 30 31 32 32 32 32 32 32 32 32 33 33 33 33 33 33 33 34 36 37
31 33 35 37 39 40 41 40 39 36 34 31 29 28 28 30 31 32 32 32 32 31 27 24 24 26 29 31 32 31 29 27 26 25 25 25 25 26 26 24 24 24 25 27 29 29 29 29 29 29 28 27 25 23 22 22 23 24 25 27 28 29 29 29 30 30 30 30 30 30 30 30 31 31 31 32 32 32 32 32 32 32 33 34 36 38
35 36 36 38 38 38 38 36 35 32 30 28 27 26 26 27 29 31 32 33 31 28 25 24 25 27 29 31 32 32 30 27 25 23 22 22 23 24 25 25 25 25 25 26 28 29 27 26 24 23 23 22 21 21 22 23 25 27 29 31 32 31 31 30 29 29 28 27 27 27 27 28 29 30 30 31 31 31 31 31 31 32 33 34 36 38
36 37 36 36 36 35 34 32 31 30 29 28 27 26 26 26 28 31 33 32 29 26 25 25 27 28 30 31 31 31 29 25 22 20 20 22 23 25 26 26 26 25 24 25 26 27 26 24 21 19 19 20 21 22 24 25 27 30 32 33 33 31 29 27 26 25 24 23 22 22 23 24 26 28 29 29 30 30 30 30 31 31 33 34 36 38
36 35 34 33 33 32 31 30 30 29 28 28 27 27 26 27 29 30 31 29 26 25 26 27 28 29 29 29 29 28 28 25 22 21 22 24 26 28 28 27 27 26 24 22 23 24 26 25 22 19 19 20 22 24 25 26 27 28 30 31 31 29 25 23 21 20 19 19 18 18 19 21 23 25 26 28 28 29 29 29 30 31 32 34 35 37
33 32 31 31 31 31 30 29 29 28 28 28 28 27 27 28 28 28 27 26 26 26 28 29 30 30 30 30 29 29 29 28 26 25 25 27 28 29 29 27 26 25 24 23 23 23 25 26 25 23 22 22 24 25 25 26 25 26 27 29 30 27 23 19 17 16 15 15 16 18 20 19 20 21 23 25 26 26 27 27 28 29 31 32 33 34
31 31 31 31 31 30 29 28 28 28 28 28 28 27 28 28 27 26 25 26 27 28 29 30 31 32 33 33 31 30 31 30 29 27 27 27 28 29 28 27 26 25 25 25 24 25 25 26 27 26 25 24 23 24 24 24 24 24 26 28 28 25 20 15 12 10 9 9 12 17 19 18 17 17 19 21 22 23 24 25 26 27 28 29 30 30
31 31 31 31 30 30 29 29 28 28 28 28 28 28 27 27 27 26 27 28 29 29 30 30 31 33 34 33 31 30 31 31 29 28 28 29 29 29 29 28 27 26 26 25 24 24 24 25 25 25 24 24 24 23 23 22 23 24 26 27 26 23 18 12 8 6 5 5 8 13 15 15 14 14 14 16 17 19 20 21 23 24 25 26 27 27
31 31 31 30 30 30 30 29 29 29 28 28 28 28 27 27 27 28 29 30 31 31 31 32 33 34 34 32 31 31 32 32 31 31 31 30 30 30 30 28 27 25 24 24 24 24 23 24 24 23 24 24 25 24 22 21 21 23 25 25 23 21 17 12 7 4 1 2 6 9 11 11 11 11 11 12 13 15 16 18 19 21 22 23 25 26
30 30 30 30 29 29 29 30 29 29 29 29 28 28 28 29 29 30 30 31 31 33 34 35 36 35 33 32 32 32 34 34 34 34 32 31 30 30 30 29 27 25 24 25 25 24 23 23 23 24 24 24 24 23 21 20 20 22 24 23 21 18 16 11 5 0 3 5 6 8 9 9 9 9 10 12 14 16 18 19 20 22 23 23 24 25
30 30 30 30 29 29 29 30 30 29 29 30 30 30 30 31 31 31 32 33 33 34 35 36 35 33 31 31 32 33 35 36 36 34 32 31 30 31 31 30 28 26 25 25 25 24 23 23 24 24 23 22 21 20 20 20 21 23 24 23 20 17 14 7 1 5 7 8 8 9 9 9 11 13 15 17 19 21 23 24 25 26 27 27 27 27
30 30 30 30 29 29 30 30 30 30 30 30 31 31 32 32 33 33 33 34 35 35 35 35 33 31 30 30 32 34 35 35 34 33 31 30 30 29 29 29 28 26 25 25 25 25 25 23 23 23 22 21 21 21 21 21 22 23 24 22 19 16 12 3 5 9 10 11 11 11 11 13 15 18 20 22 24 26 27 28 29 29 30 30 31 31
30 30 30 30 30 30 30 30 30 30 31 32 32 33 33 33 34 34 35 35 35 35 35 33 31 30 30 31 32 34 34 33 32 31 30 29 28 27 26 26 26 25 25 26 27 27 26 24 23 22 21 21 21 21 21 21 22 23 24 22 20 16 9 2 8 11 12 13 14 15 15 16 19 21 23 25 27 29 30 31 31 32 33 33 34 34
31 31 31 30 30 30 31 30 31 32 32 33 33 33 33 33 33 33 33 33 34 34 33 31 29 29 30 31 31 32 32 31 30 29 27 26 25 24 24 24 25 26 27 28 28 28 27 26 24 23 23 22 22 23 22 22 22 22 22 22 21 16 7 5 10 12 14 15 16 18 18 20 22 24 26 28 29 31 32 32 33 34 35 36 36 36
31 31 31 31 31 31 31 31 32 32 33 34 34 33 32 32 32 32 32 33 33 33 32 29 28 28 30 31 31 31 30 29 27 26 24 23 22 22 23 24 26 27 27 28 27 27 27 26 25 24 24 24 24 24 23 22 21 20 19 20 19 14 7 7 12 15 17 18 19 20 21 22 24 26 27 29 30 31 32 33 34 34 35 37 38 38
31 31 31 31 31 31 32 32 33 33 33 32 32 31 31 32 32 31 32 32 32 31 29 27 27 28 29 29 29 29 28 27 26 24 22 21 21 23 24 25 25 25 25 26 26 26 26 25 25 24 24 23 23 22 22 21 20 20 21 21 17 11 7 10 14 18 21 22 22 22 23 24 25 26 28 29 30 31 32 33 34 35 35 36 37 38
31 31 31 32 32 32 33 33 33 33 32 31 31 30 31 31 31 31 32 32 32 31 29 27 27 28 28 28 28 27 26 25 23 21 20 21 23 24 24 23 22 22 22 23 24 25 25 24 24 24 23 22 22 22 22 20 20 20 22 20 13 7 7 11 14 18 22 24 24 24 25 26 27 28 28 29 30 30 31 32 34 34 35 36 36 36
31 31 32 33 33 32 32 32 32 31 31 31 31 31 31 32 32 32 32 32 31 30 28 27 27 27 27 27 26 25 24 23 21 19 20 22 24 24 22 21 20 19 20 20 21 22 22 22 22 21 20 20 20 20 20 19 19 20 20 18 11 8 11 13 15 18 21 24 25 26 27 27 28 29 29 30 30 30 30 31 32 32 33 34 35 36
31 32 32 32 32 32 32 32 31 31 31 31 31 32 31 32 32 31 31 31 30 29 27 27 27 27 25 24 23 23 22 21 20 20 22 24 23 22 20 18 17 17 17 17 17 17 18 18 19 19 18 17 17 17 17 17 18 19 18 15 11 12 15 17 18 19 21 23 25 26 26 27 28 29 29 30 30 30 31 31 31 31 32 32 32 33
31 32 32 32 32 32 31 32 32 31 31 31 31 31 32 32 32 32 32 30 29 28 27 27 26 25 24 23 23 22 22 21 20 21 22 23 21 19 17 16 15 14 14 13 13 13 14 15 16 16 15 14 13 14 15 16 17 17 16 14 12 14 17 19 20 20 21 22 23 24 24 24 25 26 28 29 29 29 30 30 31 31 31 32 32 33
32 33 32 32 32 32 32 32 32 31 31 31 32 32 33 33 33 32 30 29 28 28 28 27 25 24 24 23 23 22 21 20 20 21 22 21 19 17 15 13 13 12 12 10 9 9 10 11 12 12 11 10 10 12 14 16 16 15 13 13 14 16 20 22 22 21 21 21 22 22 21 21 22 24 26 26 27 27 27 28 28 29 30 31 32 33
33 32 32 32 32 32 32 32 31 31 31 32 32 33 33 33 32 31 29 28 28 28 27 26 25 24 23 22 21 20 19 19 20 21 21 20 18 15 13 12 11 10 9 8 6 6 6 7 8 9 9 9 9 10 12 13 13 12 12 13 16 19 22 24 24 22 21 21 20 19 19 19 20 22 24 25 25 25 25 25 25 26 27 28 30 31
34 33 33 33 33 32 32 32 32 32 32 33 34 34 33 33 31 29 28 28 28 27 26 25 24 23 22 21 19 19 19 19 20 20 20 19 17 14 12 10 9 9 8 6 5 3 3 4 5 6 7 8 9 10 10 11 11 11 12 15 18 21 24 25 25 23 22 21 19 19 18 18 19 20 22 24 25 25 25 24 24 24 25 26 28 29
34 34 33 32 32 32 33 33 32 33 34 34 34 34 33 32 30 28 28 27 27 26 24 23 22 22 20 19 18 18 18 19 19 19 19 18 16 13 11 9 8 8 7 6 5 3 3 3 2 3 5 6 6 7 9 10 11 12 14 17 21 23 25 26 25 23 22 20 19 18 18 19 19 20 22 24 26 26 25 25 24 24 24 25 26 27
34 34 33 33 32 33 33 33 33 34 34 34 34 34 32 30 29 29 28 27 25 24 23 22 21 20 18 17 17 17 17 18 18 19 18 17 15 13 11 9 8 7 6 5 5 4 3 3 4 3 1 3 4 5 8 10 12 14 16 19 22 25 26 26 25 23 21 20 19 19 19 20 21 21 22 24 26 26 25 25 24 24 24 25 25 26
Wind_Direction
293 295 296 296 296 295 294 294 295 296 297 298 299 299 300 300 300 300 300 299 299 298 297 295 294 294 293 292 291 290 289 288 287 286 285 285 283 282 281 282 282 282 282 280 279 278 278 279 280 281 281 282 281 279 276 273 271 270 271 271 270 269 268 268 268 268 267 265 263 262 262 262 262 260 258 257 256 255 255 254 254 254 255 256 255 255
295 295 296 296 295 294 293 293 294 294 296 297 298 299 300 301 301 302 301 300 299 298 297 296 295 294 293 291 290 289 288 287 287 286 285 285 284 284 284 286 287 288 287 286 285 284 282 282 281 281 281 281 281 280 279 275 273 273 273 272 270 269 268 268 267 266 265 264 262 261 262 262 261 258 256 255 255 255 255 253 252 252 253 253 253 253
297 297 297 297 296 294 294 294 294 294 294 295 296 298 300 302 302 302 302 301 300 299 297 296 295 294 292 291 290 289 288 287 287 286 286 285 284 284 284 285 287 288 287 287 286 284 282 281 281 281 281 282 283 282 280 278 276 275 275 274 273 272 271 269 267 264 261 260 259 259 260 260 258 255 253 252 252 253 254 254 253 252 252 252 252 252
297 298 298 298 297 295 294 294 294 293 293 294 296 299 301 302 302 302 301 300 300 298 297 296 295 293 292 291 290 289 288 287 287 286 286 285 285 284 284 284 284 284 283 282 281 280 281 281 282 282 282 283 283 282 281 279 277 277 277 276 276 275 274 272 269 264 260 257 256 256 256 255 254 252 250 250 250 251 252 253 253 252 251 251 251 251
296 297 298 298 297 295 293 292 292 292 293 295 299 301 302 302 302 301 301 300 299 298 297 296 295 293 292 291 290 289 288 288 287 287 286 286 286 286 285 285 283 282 280 279 280 281 282 284 284 284 284 283 283 282 281 279 277 276 276 276 276 275 274 272 269 265 261 258 256 254 252 250 249 248 246 246 248 249 250 251 251 250 249 249 249 249
295 296 297 297 295 293 292 291 291 294 298 300 302 302 302 302 301 301 300 300 299 298 297 296 295 293 292 291 290 290 289 289 288 288 287 287 287 286 286 286 284 283 281 282 283 284 285 286 286 285 284 284 283 282 280 278 276 274 274 273 272 271 270 268 266 264 261 259 256 253 250 248 246 245 245 244 246 248 249 250 250 249 248 247 247 247
293 294 295 294 292 290 291 293 296 300 302 303 303 303 303 302 301 300 299 299 299 298 297 296 295 294 292 292 292 291 291 291 290 289 288 288 287 287 287 287 286 286 285 285 286 286 286 286 285 285 285 284 283 281 279 277 275 273 272 270 268 267 265 263 261 260 259 257 255 253 251 248 247 247 247 246 246 247 248 249 248 247 246 245 244 245
293 293 293 292 293 294 297 299 301 302 303 303 304 304 303 302 301 300 299 298 298 297 297 296 295 294 293 293 293 293 293 292 292 291 290 289 288 287 287 286 286 286 285 286 285 285 286 287 287 287 286 284 283 281 279 278 278 277 275 272 268 265 261 258 257 256 255 253 252 251 250 250 250 251 251 251 250 249 248 248 247 245 244 243 242 242
294 295 296 298 301 304 305 303 302 302 303 303 303 302 302 302 301 300 299 299 298 297 296 296 295 294 294 294 294 294 293 293 292 291 290 289 288 287 286 286 286 286 286 287 287 288 290 291 292 291 289 286 285 284 283 284 283 281 277 274 271 267 263 259 256 254 252 249 248 248 249 250 252 253 253 253 252 251 249 248 247 245 243 242 241 241
300 302 305 306 306 305 304 302 302 302 302 301 300 299 299 299 299 299 299 299 298 297 296 294 294 294 294 294 294 294 294 293 291 290 288 287 286 286 286 286 286 287 288 290 292 294 296 296 296 293 291 290 289 288 286 284 283 280 277 275 272 269 264 261 258 256 253 248 245 244 246 248 251 252 252 251 251 250 250 249 247 246 244 242 241 241
305 306 306 305 303 302 300 299 300 301 301 300 299 298 297 296 296 297 298 298 298 297 295 294 293 293 294 294 295 294 294 293 291 290 288 287 286 286 285 285 285 285 287 289 292 294 296 295 293 292 291 290 288 287 286 287 286 284 283 281 277 271 265 261 259 258 256 250 244 242 243 246 248 248 248 248 248 248 248 248 247 246 245 243 242 241
303 303 302 301 301 300 299 299 299 300 300 299 299 298 298 297 296 296 296 297 297 296 295 294 293 292 292 293 294 294 293 292 291 289 288 286 286 285 285 285 284 284 285 287 288 290 290 290 290 290 290 288 288 288 290 290 290 288 286 284 281 276 269 264 260 258 255 250 246 244 246 247 247 246 247 248 249 248 247 246 246 245 244 243 242 241
299 300 300 300 300 300 300 300 300 300 299 298 297 297 298 299 298 297 296 295 295 294 294 293 293 292 292 292 292 292 291 290 289 289 289 289 290 291 292 293 294 293 292 291 290 290 290 290 290 289 288 288 290 291 293 293 293 291 288 285 282 278 274 269 264 259 255 253 251 250 250 249 248 248 251 252 252 250 248 246 244 244 243 242 242 241
298 298 299 300 300 300 299 299 298 297 296 296 296 297 298 299 299 298 296 294 293 292 292 292 292 293 293 292 292 292 293 295 296 297 297 299 300 301 300 300 300 298 296 294 292 290 289 289 288 287 287 288 290 293 294 295 294 293 290 286 282 280 277 273 268 262 258 256 255 254 253 251 251 252 255 255 254 252 249 246 244 243 242 241 241 240
296 298 299 300 300 299 299 297 295 293 294 297 299 300 300 299 298 297 295 294 293 292 293 292 292 291 291 292 294 298 302 304 305 305 303 302 301 300 300 299 297 295 293 291 289 287 285 285 284 285 286 287 289 291 293 294 295 294 292 287 283 279 277 274 270 265 261 259 258 257 256 255 255 255 256 255 254 252 249 246 244 243 241 241 240 239
295 298 300 300 300 299 297 294 292 292 296 299 301 302 301 299 298 296 295 293 293 293 293 292 291 290 291 294 300 305 306 305 303 301 300 299 298 298 297 296 294 292 290 288 286 285 284 284 284 284 285 287 289 290 291 293 294 294 292 288 282 276 272 270 266 263 261 260 260 260 259 259 257 256 255 254 252 250 247 245 243 242 241 240 240 239
296 299 300 300 299 297 294 291 291 294 299 301 302 301 299 298 296 295 293 292 292 292 291 290 289 290 295 300 302 303 303 302 300 299 299 298 297 297 296 294 293 291 289 287 285 284 284 284 284 285 286 287 289 290 291 292 294 294 292 287 280 274 270 266 263 260 260 261 263 264 264 262 258 255 253 251 250 247 245 243 242 241 240 240 239 239
300 301 301 299 297 295 292 291 293 297 300 301 301 300 298 296 295 293 292 291 291 289 287 285 286 292 301 303 303 302 303 301 300 299 298 297 297 296 295 293 291 289 288 286 285 284 284 284 284 285 286 287 289 289 290 292 293 293 289 285 281 278 276 272 268 266 267 269 271 271 270 266 261 256 253 250 248 246 244 243 241 240 240 239 239 239
300 299 298 297 294 292 291 292 295 299 300 301 300 300 298 296 294 293 292 291 289 287 284 284 289 296 301 301 300 301 301 299 298 298 297 296 296 295 294 292 290 288 286 285 284 284 283 283 283 284 284 284 284 285 287 289 288 286 283 283 284 285 284 280 276 275 274 275 276 276 274 270 265 259 255 251 248 246 244 242 241 240 239 238 238 239
296 295 294 293 291 290 291 293 296 298 299 300 300 299 297 295 294 292 291 290 289 287 287 291 296 300 300 299 298 297 297 297 297 296 296 295 294 294 293 292 290 287 285 284 283 283 282 282 282 281 281 280 281 284 286 287 286 286 288 289 290 292 292 290 287 283 281 281 281 280 277 273 269 263 258 254 250 247 245 243 241 239 239 238 238 238
292 291 290 289 289 289 291 293 295 297 299 300 300 298 296 294 293 292 291 291 291 292 294 297 299 299 299 297 295 294 295 296 296 295 294 292 292 292 292 291 289 286 283 282 281 282 283 284 285 286 288 290 292 293 294 294 294 295 296 295 294 294 294 292 290 288 287 286 284 282 278 274 270 265 261 256 252 249 246 244 241 239 238 237 237 238
288 287 288 288 287 288 290 293 296 298 300 300 299 297 295 294 293 293 293 294 295 296 298 298 297 297 295 293 292 291 293 295 295 294 291 290 290 290 291 290 288 285 283 284 286 289 291 292 293 294 295 297 299 300 299 299 299 298 297 295 293 291 292 291 290 288 287 285 283 281 277 273 269 265 261 257 254 250 247 245 242 240 238 237 236 236
285 284 285 286 287 289 292 296 298 300 301 300 297 295 294 293 293 293 294 295 296 296 296 296 295 294 292 290 290 291 294 296 296 293 289 288 288 289 290 289 288 287 289 292 296 298 298 297 295 295 295 296 297 297 297 296 294 293 291 289 288 289 290 290 289 287 285 283 281 278 275 271 267 263 260 256 253 250 248 245 243 240 238 236 235 235
284 284 285 287 290 293 297 299 300 301 300 298 296 294 292 292 292 292 292 293 293 293 293 293 292 291 289 289 290 293 296 297 296 292 287 285 284 286 288 289 290 291 293 294 296 297 297 296 294 293 294 294 293 291 288 286 286 286 287 287 289 290 291 290 288 286 283 281 279 276 273 269 265 261 257 254 252 250 247 245 243 241 238 236 235 234
286 286 289 292 296 298 299 299 299 298 297 296 294 293 292 292 292 292 291 290 290 291 291 290 288 287 288 292 294 296 297 298 295 291 287 284 285 287 289 291 294 296 294 293 294 295 295 295 294 294 294 293 291 288 287 287 287 288 289 290 292 292 291 289 287 285 282 280 278 274 271 267 263 259 255 253 250 248 247 245 243 241 239 237 235 233
293 294 296 298 299 300 300 299 298 297 296 295 293 293 293 293 293 292 291 291 290 290 288 286 285 288 292 295 297 297 298 298 296 292 290 290 291 291 291 292 294 294 293 293 293 294 294 293 293 292 292 292 292 291 291 291 291 292 292 293 292 291 289 287 285 283 281 278 275 272 268 264 261 257 254 251 249 247 245 244 242 241 239 237 235 233
303 302 302 301 301 301 300 300 299 299 298 296 295 294 295 294 294 293 292 291 291 290 288 287 290 294 297 298 297 297 298 297 296 295 294 294 293 291 291 292 292 292 292 293 293 293 293 293 293 293 294 295 296 296 295 292 291 292 293 293 292 290 289 288 287 284 281 277 274 270 267 263 259 255 252 249 247 245 244 243 242 240 239 237 235 233
308 306 304 303 302 302 302 301 301 301 301 301 299 298 298 296 294 293 292 292 291 290 288 291 296 299 299 298 297 296 296 295 295 296 295 293 289 287 289 292 294 294 295 295 295 295 294 293 293 294 295 297 298 296 293 290 290 291 292 291 291 291 292 291 290 287 283 278 274 270 266 263 258 255 251 248 246 244 243 242 241 239 238 237 235 233
310 308 306 305 304 304 304 304 304 305 306 305 304 302 300 297 295 294 293 293 292 291 293 297 300 300 299 297 296 295 294 294 295 297 297 293 288 287 291 294 295 296 297 298 298 297 295 293 293 295 296 296 294 292 291 291 291 291 291 292 293 294 295 294 291 288 283 279 275 270 266 262 258 254 250 247 244 243 241 240 239 238 237 236 235 234
313 311 309 308 307 307 307 307 308 308 308 307 305 303 301 299 297 296 295 293 292 295 300 302 302 300 298 297 296 295 294 294 296 299 299 296 292 291 294 295 295 296 298 300 300 299 297 296 295 295 295 294 294 294 294 295 295 295 296 298 300 301 300 297 293 288 284 279 275 270 265 259 255 251 248 246 243 241 240 238 237 236 235 235 234 234
315 313 312 310 310 310 310 310 309 308 307 306 305 302 301 300 300 299 296 294 295 299 303 303 300 297 295 293 293 293 293 295 298 300 300 297 294 292 294 294 294 294 295 296 297 298 298 298 297 295 294 295 297 298 298 298 298 298 300 303 306 307 306 301 295 290 288 288 287 282 273 263 255 250 247 244 242 240 238 236 234 233 233 233 233 233
315 313 312 311 311 311 311 310 308 307 306 306 304 303 302 302 301 300 297 296 298 300 301 299 296 293 290 288 287 287 289 293 296 299 298 296 293 292 292 292 292 292 292 291 290 290 293 294 295 296 296 297 297 297 298 298 297 297 300 304 308 310 308 302 295 292 295 300 300 295 286 276 263 253 246 243 240 238 235 232 230 229 229 230 230 232
313 312 311 311 311 310 309 308 307 307 305 305 304 303 303 302 301 299 297 297 298 298 297 295 293 291 289 287 285 285 287 291 295 297 296 294 293 292 292 292 291 291 291 290 287 285 284 287 291 294 296 296 297 297 298 298 296 297 299 305 309 310 308 301 294 295 305 304 293 289 289 286 276 260 249 241 237 234 231 228 226 225 225 226 227 228
312 311 311 311 310 309 309 308 307 307 306 305 305 304 303 302 301 300 298 298 298 297 296 294 292 290 288 287 287 287 289 292 294 295 294 293 291 291 292 291 291 291 291 289 288 285 283 283 287 292 295 297 297 297 297 296 296 297 300 305 309 311 310 303 300 310 324 296 275 277 285 287 280 266 250 239 232 228 226 224 223 223 223 223 223 222
311 311 311 311 310 310 309 309 308 308 307 306 305 305 304 303 302 301 300 299 299 298 297 296 294 291 288 287 288 290 291 293 294 294 293 291 290 290 291 290 290 289 289 288 287 286 285 284 286 290 294 297 297 297 296 296 296 297 300 304 309 312 313 308 310 326 348 227 245 260 271 273 268 255 237 222 214 211 209 209 210 211 213 214 214 213
311 311 310 311 310 310 309 309 309 308 308 307 306 305 305 304 303 302 301 301 300 300 300 300 298 294 288 286 286 289 291 293 294 294 293 290 289 289 289 288 287 287 286 286 285 285 285 286 288 290 292 294 295 296 297 297 297 297 300 304 311 316 316 310 306 108 141 178 214 237 244 240 229 211 195 186 182 181 180 181 182 184 186 188 192 197
310 310 310 311 310 310 310 310 309 309 308 308 307 307 306 305 304 303 303 302 302 302 302 302 299 293 287 285 286 288 291 293 294 293 291 289 288 287 286 286 286 285 283 283 283 284 284 286 288 289 290 289 290 293 296 298 298 299 301 308 317 323 321 306 204 136 148 170 195 211 210 196 182 172 166 164 164 163 162 161 161 161 161 161 163 167
311 310 310 311 311 310 310 310 309 309 309 308 307 307 307 306 305 305 304 304 305 305 303 301 297 292 288 287 289 292 293 293 293 292 290 289 288 286 285 285 284 283 282 281 281 281 283 284 285 287 287 287 286 288 291 294 296 298 302 311 322 326 321 291 140 132 143 162 179 187 184 174 166 160 156 156 156 155 152 149 148 147 146 144 143 143
310 310 310 310 310 310 310 309 308 308 308 308 307 307 307 307 306 306 306 306 306 306 304 301 296 292 291 292 294 295 296 295 294 292 291 290 289 287 285 284 283 283 282 281 280 280 279 279 279 281 283 285 286 287 289 291 294 297 302 311 321 325 316 191 137 128 139 153 165 171 170 163 158 155 151 151 150 148 144 141 140 139 138 135 133 131
310 309 309 310 310 309 309 308 307 308 308 308 309 309 308 308 307 307 306 306 305 305 303 300 297 295 295 296 297 297 298 297 296 295 294 293 291 289 287 285 285 285 285 284 282 280 277 276 275 276 277 279 281 284 287 289 291 295 300 307 312 312 296 173 139 129 138 148 157 162 162 157 152 148 146 145 143 141 139 137 136 135 135 133 129 126
309 309 309 309 310 309 308 309 309 309 310 310 310 310 308 308 308 307 306 306 305 304 303 301 299 299 299 299 299 299 299 299 299 298 296 295 293 292 291 290 289 289 288 286 284 281 278 275 274 274 275 276 278 281 283 286 289 291 293 299 301 296 260 171 142 133 136 143 151 156 156 151 146 142 140 138 135 134 134 133 132 131 132 132 130 128
309 308 308 309 309 309 309 309 310 310 310 310 309 309 308 309 308 307 307 307 305 303 302 302 302 302 302 301 301 301 301 303 303 301 298 295 295 296 296 295 294 292 289 286 283 280 278 276 275 275 275 275 276 278 281 284 285 286 288 293 292 277 218 171 148 138 137 139 145 149 147 143 138 134 133 130 129 129 130 130 129 128 127 128 129 129
309 309 309 309 309 309 310 310 311 311 310 310 309 308 308 309 308 307 306 305 304 304 305 305 306 306 304 303 302 303 304 306 305 303 298 297 299 301 301 300 297 293 289 285 281 280 281 280 278 277 276 276 275 275 276 279 279 280 283 288 278 235 174 160 150 143 140 141 142 142 139 136 132 130 129 127 127 127 128 129 129 129 128 128 128 129
309 309 309 310 311 311 311 311 311 311 311 310 309 309 309 310 309 308 306 304 304 305 307 308 309 308 305 303 303 304 305 307 307 304 302 303 306 307 306 303 300 295 291 285 282 282 284 283 282 280 279 277 275 274 273 273 271 272 277 278 258 203 161 152 149 145 142 142 141 140 138 135 133 132 131 130 129 130 130 131 131 131 131 132 131 131
310 310 311 312 312 312 312 312 311 311 311 311 310 310 311 312 311 308 307 306 306 308 310 311 310 308 305 303 304 306 307 309 308 307 307 309 311 311 308 304 301 298 294 289 285 285 285 285 284 283 283 281 277 272 267 262 261 265 270 267 238 191 162 154 150 147 144 142 141 140 140 139 138 136 133 132 133 134 135 136 136 136 136 137 137 136
312 312 313 313 313 313 312 313 313 312 312 311 311 312 313 313 312 310 309 309 310 311 312 312 311 308 305 304 306 307 309 310 310 310 311 313 313 312 307 303 300 299 295 290 288 288 287 287 286 285 283 278 272 262 253 251 252 257 260 250 217 180 158 151 149 148 147 145 143 143 144 144 143 140 135 134 133 135 138 138 139 140 141 142 143 143
314 313 313 313 313 312 312 312 313 313 313 313 313 313 314 314 312 311 311 312 313 314 314 313 311 308 306 306 308 309 311 312 312 313 315 317 317 313 306 300 298 299 298 293 290 291 292 289 286 281 271 260 249 242 241 243 246 247 244 227 199 172 155 148 148 149 149 148 146 146 148 148 145 140 136 134 132 132 135 137 139 140 142 143 144 143
315 314 314 313 313 313 312 313 313 313 314 314 314 314 314 314 313 313 313 314 315 316 315 314 312 311 309 310 311 312 314 313 314 317 322 324 324 319 309 300 296 297 300 298 296 296 297 291 282 269 254 240 229 225 227 232 235 233 224 206 185 167 153 149 149 150 151 149 149 149 150 148 143 138 135 132 129 128 129 132 135 137 140 141 141 140
315 315 314 314 313 313 312 313 313 313 314 314 314 314 315 314 314 315 316 317 318 318 317 315 314 313 313 314 315 316 316 317 320 325 329 332 331 328 320 307 298 296 299 304 310 319 326 303 278 259 246 235 225 217 215 217 219 216 205 189 174 161 152 148 148 150 151 150 150 150 150 147 144 141 138 133 128 125 125 126 127 129 133 137 139 138
316 316 315 314 314 313 313 313 313 313 313 314 314 314 314 315 317 318 319 320 320 320 319 319 318 318 317 318 319 319 319 322 327 332 335 338 340 339 335 325 312 303 301 306 316 340 7 2 319 257 238 234 224 211 201 197 198 197 187 175 165 156 150 147 147 149 150 149 149 148 147 144 142 142 140 136 132 129 127 125 123 123 125 130 134 136
317 317 316 315 315 315 314 314 314 314 315 314 314 314 314 317 319 321 322 323 323 323 324 324 325 324 323 324 324 324 326 329 333 337 340 344 348 350 350 346 337 328 322 322 327 333 344 13 36 53 128 197 208 199 184 176 176 175 170 164 158 152 148 146 146 148 148 147 147 145 143 140 139 139 140 138 135 133 130 127 125 123 123 125 127 129